Regional Weather Roundup
Issued by NWS

Home | Current Version | Previous Version | Graphics & Text | Print | Product List | Glossary On
Versions: 1 2 3 4 5 6 7 8 9 10 11 12 13 14 15 16 17 18 19 20 21 22 23 24 25 26 27 28 29 30 31 32 33 34 35 36 37 38 39 40 41 42 43 44 45 46 47 48 49 50
000
ASUS43 KMKX 282100
RWRWI

WISCONSIN REGIONAL WEATHER ROUNDUP
NATIONAL WEATHER SERVICE MILWAUKEE/SULLIVAN WI
400 PM CDT SAT MAY 28 2016

NOTE: "FAIR" INDICATES FEW OR NO CLOUDS BELOW 12,000 FEET WITH NO
SIGNIFICANT WEATHER AND/OR OBSTRUCTIONS TO VISIBILITY.

WIZ001-002-006>008-014>016-023>028-282200-
NORTHWEST WISCONSIN

CITY           SKY/WX    TMP DP  RH WIND       PRES   REMARKS
SUPERIOR ARPT  CLOUDY    57  51  80 E5        29.80R
ASHLAND        CLOUDY    60  54  80 N10       29.77S
HAYWARD        CLOUDY    71  62  73 VRB7      29.76S
SIREN          CLOUDY    66  59  79 NW6       29.77F
CUMBERLAND     LGT RAIN  68  59  73 CALM      29.77S
RICE LAKE      CLOUDY    69  63  80 S8        29.78S
CHETEK         CLOUDY    69  63  82 SW3       29.77S
LADYSMITH      LGT RAIN  71  65  81 SW14G20   29.78R
EAU CLAIRE     NOT AVBL
MENOMONIE      CLOUDY    72  71  98 SE7       29.75F
NEW RICHMOND   RAIN      65  64  97 NW8       29.77S
OSCEOLA        RAIN      65  65 100 NW3       29.79S
$$

WIZ003>005-009-010-017-018-282200-
NORTH CENTRAL WISCONSIN

CITY           SKY/WX    TMP DP  RH WIND       PRES   REMARKS
MANITOWISH WTR NOT AVBL
ARBOR VITAE    HVY RAIN  65  64  94 W5        29.76R VSB 3/4
WOODRUFF       HVY RAIN  65  64  94 W5        29.76R VSB 3/4
RHINELANDER    PTSUNNY   72  65  78 SW12      29.78R
EAGLE RIVER      N/A     73  65  74 SW13G18   29.76R
LAND O LAKES   PTSUNNY   72  68  87 S8        29.76F
PHILLIPS       LGT RAIN  64  64 100 CALM      29.77S
TOMAHAWK       CLOUDY    69  64  83 SW9G17    29.79R
MEDFORD        PTSUNNY   71  66  85 SW13      29.78F
MERRILL        PTSUNNY  N/A N/A N/A SW18G24   29.78S
$$

WIZ029-030-035-036-043>047-282200-
CENTRAL WISCONSIN

CITY           SKY/WX    TMP DP  RH WIND       PRES   REMARKS
WAUSAU         PTSUNNY   78  61  55 SW15G26   29.77R HX  80
MOSINEE        PTSUNNY   73  63  68 MISG      29.79S
MARSHFIELD     PTSUNNY   77  60  55 SW16      29.78S
STEVENS POINT  MOSUNNY   76  58  54 SW16G26   29.80S
WAUPACA        PTSUNNY   83  63  51 SW14      29.80S HX  84
WAUTOMA        MOSUNNY   81  63  54 SW17      29.79F HX  82
WISC RAPIDS    MOSUNNY   79  58  48 SW16G26   29.80F HX  80
CAMP DOUGLAS   NOT AVBL
$$

WIZ011>013-019>022-031-037>040-048>050-282200-
NORTHEAST WISCONSIN

CITY           SKY/WX    TMP DP  RH WIND       PRES   REMARKS
ANTIGO         PTSUNNY   75  65  69 S20G29    29.80S
SHAWANO        PTSUNNY   82  62  50 SW9G20    29.79F HX  83
OCONTO         PTSUNNY   79  67  66 SW12G18   29.79F HX  81
STURGEON BAY   NOT AVBL
GREEN BAY      MOSUNNY   81  67  62 S15G23    29.80F HX  83
MANITOWOC      NOT AVBL
APPLETON       PTSUNNY   79  61  53 S16       29.80F HX  80
CLINTONVILLE   MOSUNNY   81  61  50 SW18      29.79F HX  81
OSHKOSH        MOSUNNY   81  65  58 S20G26    29.81F HX  83
$$

WIZ032>034-041-042-053>061-282200-
SOUTHWEST WISCONSIN

CITY           SKY/WX    TMP DP  RH WIND       PRES   REMARKS
LA CROSSE      CLOUDY    79  62  56 S15G22    29.75S HX  80
SPARTA         PTSUNNY   80  62  54 S13G22    29.78S HX  81
VIROQUA        CLOUDY    76  59  55 S12G17    29.80S
BOSCOBEL       MOSUNNY   79  62  56 VRB3      29.76F HX  80
PRAIRIE DU CHI LGT RAIN  77  60  55 SE6       29.75F
PLATTEVILLE    MOSUNNY   81  66  60 S15       29.80F HX  83
$$

WIZ056-057-062-063-064-067-068-282200-
SOUTH CENTRAL WISCONSIN

CITY           SKY/WX    TMP DP  RH WIND       PRES   REMARKS
REEDSBURG      PTSUNNY   80  65  60 S8G17     29.79F HX  81
BARABOO/DELLS  MOSUNNY   81  59  47 SW16G23   29.80S HX  81
LONE ROCK      NOT AVBL
MINERAL POINT  SUNNY     81  63  54 S15       29.81F HX  82
MADISON        PTSUNNY   82  61  48 SW14G24   29.80F HX  83
MIDDLETON      MOSUNNY   82  63  51 S16G24    29.82F HX  83
WATERTOWN      MOSUNNY   81  64  55 SW17      29.83F HX  83
MONROE         MOSUNNY   81  63  54 S16G23    29.83S HX  82
JANESVILLE     PTSUNNY   84  63  48 S14G22    29.83F HX  85
$$

WIZ051-052-058>065-066-070>072-282200-
SOUTHEAST WISCONSIN

CITY           SKY/WX    TMP DP  RH WIND       PRES   REMARKS
MILWAUKEE      PTSUNNY   80  63  55 S14G24    29.86F HX  81
WAUKESHA       PTSUNNY   79  64  61 S17G26    29.87F HX  81
MILWAUKEE/TIMM MOSUNNY   81  61  50 S14G24    29.86F HX  81
RACINE         MOSUNNY   76  61  59 S15       29.89S
BURLINGTON     MOSUNNY   82  63  51 S9G21     29.87S HX  83
KENOSHA        MOSUNNY   80  64  58 S14G23    29.87F HX  82
FOND DU LAC    MOSUNNY   80  64  58 S17       29.82S HX  82
SHEBOYGAN      SUNNY     76  64  66 S15G21    29.84F
WEST BEND      PTSUNNY   79  64  61 S13       29.85S HX  81
JUNEAU         MOSUNNY   79  64  60 S17       29.85S HX  80
$$

LSZ147-162-282200-
LAKE SUPERIOR

STATION/POSITION TIME  TEMP    WIND        PRES    WAVE
                       AIR SEA DIR/SP/G            HT/PER
                 (UTC) (F)     (DEG/KT/KT) (MB)    (FT/S)
W MID LAKE BUOY  1950   41 38   60/  6/  6 1008.7F   1/ 4
DEVILS ISLAND    2000   44     350/  6/  7 1008.7F
SAXON HARBOR     2000   52      20/  3/  5 1007.8S
$$

LMZ867-665-643>646-282200-
LAKE MICHIGAN

STATION/POSITION TIME  TEMP    WIND        PRES    WAVE
                       AIR SEA DIR/SP/G            HT/PER
                 (UTC) (F)     (DEG/KT/KT) (MB)    (FT/S)
CHAMBERS ISLAND  2040   73     160/  6/ 20 1009.8S
N MID LAKE BUOY  1950   54 46  190/ 17/ 21 1010.9R   3/ 5
NORTHPORT PIER   2000   66     160/ 11/ 17 1010.5F
SISTER BAY       2035   71     180/ 20/ 29   N/A
ALGOMA LAKESHORE 2017          210/ 13/ 14   N/A
KEWAUNEE LAKESHO 2000   54     180/ 14/ 16 1010.5F
SHEBOYGAN LAKESH 2000   57     170/ 18/ 18 1011.5F
PORT WASHINGTON  2040   65     190/  8/ 12 1011.9F
S MID LAKE BUOY  1950   55 50  160/ 10/ 12 1013.2S   1/ 3
KENOSHA   LAKESH 2000   61     170/ 14/ 18 1011.9F
$$

TC  - TEMPERATURE IN CELSIUS
VSB - VISIBILITY IN STATUTE MILES
WCI - WIND CHILL INDEX
HX  - HEAT INDEX





USA.gov is the U.S. government's official web portal to all federal, state and local government web resources and services.